CW5430 Weather Reports


time (UTC)temp
F
wind
direction
speed
knots
gust
knots
rain 1hr
in
rain 24hr
in
rain mn
in
humidity
%
barometer
mb
20260506202012 66 244 1.7 6.1 0.00 0.10 0.10 82 1007.3
20260506201526 66 186 0.9 6.1 0.00 0.10 0.10 81 1007.2
20260506201008 66 218 0.9 7.8 0.00 0.10 0.10 81 1007.3
20260506200508 65 196 2.6 6.1 0.00 0.10 0.10 81 1007.2
20260506200025 65 244 2.6 6.1 0.00 0.10 0.10 81 1007.3
20260506195507 65 289 2.6 9.6 0.00 0.10 0.10 83 1007.3
20260506195015 65 263 1.7 9.6 0.00 0.10 0.10 83 1007.4
20260506194526 64 246 0.0 10.4 0.00 0.10 0.10 85 1007.4
20260506194009 64 265 0.9 10.4 0.00 0.10 0.10 84 1007.4
20260506193509 64 273 0.9 10.4 0.00 0.10 0.10 83 1007.6
20260506193027 64 259 1.7 7.0 0.00 0.10 0.10 85 1007.6
20260506192509 64 271 0.9 7.8 0.00 0.10 0.10 85 1007.8
20260506192011 63 221 1.7 7.8 0.00 0.10 0.10 85 1007.8
20260506191518 63 277 1.7 4.3 0.00 0.10 0.10 84 1007.9
20260506191007 63 254 1.7 4.3 0.00 0.10 0.10 84 1007.9
20260506190509 63 106 0.9 7.0 0.00 0.10 0.10 85 1007.9
20260506190024 63 217 2.6 9.6 0.00 0.10 0.10 85 1007.8
20260506185508 63 234 0.9 9.6 0.00 0.10 0.10 85 1007.8
20260506185011 63 218 1.7 7.8 0.00 0.10 0.10 85 1008.0
20260506184528 63 152 2.6 7.8 0.00 0.10 0.10 1008.0
20260506184008 63 213 1.7 7.0 0.00 0.10 0.10 1008.0
20260506183511 63 256 0.9 7.8 0.00 0.10 0.10 1008.0
20260506183026 63 191 1.7 8.7 0.00 0.10 0.10 1008.1
20260506182508 63 260 0.9 8.7 0.00 0.10 0.10 1008.0
20260506182010 63 262 3.5 8.7 0.00 0.10 0.10 1008.1
20260506181532 63 229 1.7 7.0 0.00 0.10 0.10 1008.2
20260506181008 63 218 1.7 7.0 0.00 0.10 0.10 1008.2
20260506180510 63 227 0.9 7.0 0.00 0.10 0.10 1008.1
20260506180023 63 298 2.6 7.0 0.00 0.10 0.10 85 1008.0
20260506175509 62 76 2.6 7.0 0.00 0.10 0.10 85 1008.1
20260506175010 62 305 1.7 9.6 0.00 0.10 0.10 87 1008.2
20260506174524 62 248 2.6 9.6 0.00 0.10 0.10 86 1008.2
20260506174013 62 280 1.7 6.1 0.01 0.10 0.10 87 1008.2
20260506173510 62 125 1.7 7.8 0.01 0.10 0.10 87 1008.2
20260506173026 62 245 2.6 7.8 0.01 0.10 0.10 87 1008.4
20260506172508 62 261 2.6 7.0 0.02 0.10 0.10 86 1008.3
20260506172008 62 331 2.6 7.0 0.02 0.10 0.10 87 1008.6
20260506171536 63 212 1.7 7.8 0.03 0.10 0.10 1008.6
20260506171007 63 243 0.9 7.8 0.03 0.10 0.10 88 1008.5
20260506170510 63 237 1.7 7.8 0.04 0.10 0.10 88 1008.5
20260506170022 63 235 0.9 8.7 0.04 0.10 0.10 89 1008.4
20260506165508 63 287 1.7 9.6 0.05 0.10 0.10 88 1008.6
20260506165010 63 242 0.9 9.6 0.05 0.10 0.10 89 1008.5
20260506164522 63 91 1.7 7.8 0.06 0.10 0.10 89 1008.4
20260506164013 62 271 2.6 7.8 0.06 0.09 0.09 88 1008.7
20260506163513 62 259 0.9 6.1 0.06 0.09 0.09 89 1008.4
20260506163030 62 293 0.9 6.1 0.07 0.09 0.09 89 1008.6
20260506162508 62 311 0.9 4.3 0.06 0.08 0.08 89 1008.9
20260506162012 62 82 0.0 1.7 0.06 0.08 0.08 89 1009.1
20260506161514 62 261 0.0 7.0 0.06 0.07 0.07 89 1009.3
20260506161007 62 237 1.7 7.0 0.07 0.07 0.07 88 1009.6
20260506160506 62 228 1.7 4.3 0.06 0.06 0.06 88 1009.7
20260506160032 62 126 0.9 4.3 0.06 0.06 0.06 88 1009.8
20260506155506 62 215 0.9 3.5 0.05 0.05 0.05 87 1010.0
20260506155011 62 262 0.9 8.7 0.05 0.05 0.05 87 1010.0
20260506154530 62 290 2.6 8.7 0.04 0.04 0.04 86 1010.0
20260506154012 62 265 0.9 5.2 0.03 0.03 0.03 86 1010.1
20260506153514 62 250 1.7 5.2 0.03 0.03 0.03 84 1010.0
20260506153024 63 246 0.9 6.1 0.02 0.02 0.02 84 1009.7
20260506152508 63 256 0.9 6.1 0.02 0.02 0.02 83 1009.8
20260506152015 64 265 0.0 4.3 0.02 0.02 0.02 82 1010.0
20260506151534 64 254 0.9 7.8 0.01 0.01 0.01 80 1009.9
20260506151015 65 267 0.9 7.8 0.00 0.00 0.00 76 1010.0
20260506150511 65 273 2.6 5.2 0.00 0.00 0.00 76 1009.6
20260506150027 65 215 0.9 5.2 0.00 0.00 0.00 75 1009.5
20260506145509 65 323 1.7 4.3 0.00 0.00 0.00 75 1009.6
20260506145012 65 198 0.9 8.7 0.00 0.00 0.00 75 1009.7
20260506144522 65 197 2.6 11.3 0.00 0.00 0.00 73 1009.8
20260506144014 66 304 1.7 11.3 0.00 0.00 0.00 73 1010.0
20260506143507 66 213 1.7 11.3 0.00 0.00 0.00 72 1010.0
20260506143039 66 292 0.9 10.4 0.00 0.00 0.00 70 1010.0
20260506142509 67 215 2.6 10.4 0.00 0.00 0.00 69 1010.0
20260506142012 67 161 0.9 8.7 0.00 0.00 0.00 68 1009.8
20260506141526 67 199 1.7 7.0 0.00 0.00 0.00 67 1009.9
20260506141007 67 229 3.5 7.8 0.00 0.00 0.00 67 1009.7
20260506140505 68 284 1.7 13.0 0.00 0.00 0.00 66 1009.6
20260506140015 68 331 4.3 13.0 0.00 0.00 0.00 68 1009.5
20260506135507 68 270 0.9 6.1 0.00 0.00 0.00 69 1009.7
20260506135007 67 198 1.7 6.1 0.00 0.00 0.00 69 1009.5
20260506134520 67 24 1.7 7.8 0.00 0.00 0.00 70 1009.6
20260506134003 67 5 1.7 7.8 0.00 0.00 0.00 70 1009.6
20260506133503 66 264 1.7 5.2 0.00 0.00 0.00 71 1009.7
20260506133006 66 298 0.9 6.1 0.00 0.00 0.00 71 1009.7
20260506132504 66 224 1.7 11.3 0.00 0.00 0.00 70 1009.8
20260506132008 66 225 0.9 11.3 0.00 0.00 0.00 72 1009.7
20260506131514 66 288 2.6 11.3 0.00 0.00 0.00 71 1009.7
20260506131006 66 254 1.7 7.8 0.00 0.00 0.00 71 1010.0
20260506130506 66 297 0.9 7.8 0.00 0.00 0.00 72 1010.1
20260506130012 66 236 1.7 7.8 0.00 0.00 0.00 71 1010.2
20260506125504 66 227 1.7 7.8 0.00 0.00 0.00 70 1010.2
20260506125008 66 242 0.9 7.8 0.00 0.00 0.00 72 1010.0
20260506124516 66 210 1.7 8.7 0.00 0.00 0.00 72 1009.9
20260506124008 66 288 0.9 9.6 0.00 0.00 0.00 72 1010.0
20260506123507 66 238 1.7 9.6 0.00 0.00 0.00 72 1010.0
20260506123004 66 296 1.7 6.1 0.00 0.00 0.00 72 1009.7
20260506122504 66 55 1.7 11.3 0.00 0.00 0.00 72 1009.7
20260506122006 66 151 1.7 11.3 0.00 0.00 0.00 73 1009.7
20260506121507 65 238 1.7 6.1 0.00 0.00 0.00 74 1009.7
20260506121003 65 138 1.7 7.8 0.00 0.00 0.00 74 1009.8
20260506120505 65 261 0.9 7.8 0.00 0.00 0.00 75 1009.9
20260506120011 64 238 2.6 7.0 0.00 0.00 0.00 75 1009.8
20260506115508 64 309 1.7 6.1 0.00 0.00 0.00 75 1009.8
20260506115007 64 311 0.9 5.2 0.00 0.00 0.00 75 1009.7
20260506114520 64 96 0.9 8.7 0.00 0.00 0.00 75 1009.7
20260506114008 64 246 2.6 10.4 0.00 0.00 0.00 75 1009.7
20260506113509 64 272 0.9 10.4 0.00 0.00 0.00 75 1009.7
20260506113022 64 216 1.7 6.1 0.00 0.00 0.00 76 1009.6
20260506112508 64 87 1.7 7.8 0.00 0.00 0.00 76 1009.7
20260506112011 64 259 0.9 7.8 0.00 0.00 0.00 76 1009.8
20260506111508 64 120 0.9 7.0 0.00 0.00 0.00 76 1009.7
20260506111003 64 92 1.7 7.0 0.00 0.00 0.00 76 1009.7
20260506110506 64 277 1.7 6.1 0.00 0.00 0.00 76 1009.6
20260506110010 64 86 0.9 6.1 0.00 0.00 0.00 77 1009.7
20260506105504 64 213 0.9 6.1 0.00 0.00 0.00 77 1009.6
20260506105007 63 281 1.7 7.8 0.00 0.00 0.00 77 1009.6
20260506104513 63 198 0.9 7.8 0.00 0.00 0.00 77 1009.6
20260506104007 63 81 1.7 7.0 0.00 0.00 0.00 77 1009.7
20260506103507 63 314 0.9 7.0 0.00 0.00 0.00 78 1009.5
20260506103020 63 306 1.7 10.4 0.00 0.00 0.00 78 1009.6
20260506102507 63 161 2.6 10.4 0.00 0.00 0.00 78 1009.6
20260506102008 63 289 0.9 8.7 0.00 0.00 0.00 78 1009.5
20260506101543 63 291 0.9 6.1 0.00 0.00 0.00 78 1009.5
20260506101015 63 239 0.9 6.1 0.00 0.00 0.00 78 1009.6
20260506100504 63 143 0.9 5.2 0.00 0.00 0.00 78 1009.6
20260506100007 63 288 0.9 5.2 0.00 0.00 0.00 78 1009.7
20260506095504 63 220 0.9 5.2 0.00 0.00 0.00 78 1009.7
20260506095004 63 116 0.9 5.2 0.00 0.00 0.00 78 1009.6
20260506094517 63 238 0.9 5.2 0.00 0.00 0.00 78 1009.4
20260506094007 63 325 1.7 7.8 0.00 0.00 0.00 78 1009.4
20260506093512 63 308 1.7 7.8 0.00 0.00 0.00 77 1009.4
20260506093016 64 293 1.7 5.2 0.00 0.00 0.00 77 1009.4
20260506092508 64 219 1.7 7.0 0.00 0.00 0.00 77 1009.4
20260506092010 64 200 1.7 7.0 0.00 0.00 0.00 77 1009.5
20260506091524 64 223 1.7 4.3 0.00 0.00 0.00 77 1009.5
20260506091010 64 226 1.7 5.2 0.00 0.00 0.00 76 1009.4
20260506090510 64 164 1.7 5.2 0.00 0.00 0.00 76 1009.5
20260506090024 64 24 0.9 6.1 0.00 0.00 0.00 77 1009.6
20260506085504 64 284 0.9 6.1 0.00 0.00 0.00 76 1009.6
20260506085004 64 116 0.9 7.0 0.00 0.00 0.00 77 1009.5
20260506084516 64 253 1.7 7.0 0.00 0.00 0.00 77 1009.6
20260506084004 64 107 1.7 4.3 0.00 0.00 0.00 77 1009.7
20260506083507 64 169 0.9 4.3 0.00 0.00 0.00 77 1009.6
20260506083017 64 250 0.9 4.3 0.00 0.00 0.00 77 1009.5
20260506082506 64 214 0.9 4.3 0.00 0.00 0.00 77 1009.6
20260506082012 64 210 0.9 3.5 0.00 0.00 0.00 77 1009.7
20260506081520 64 225 0.9 3.5 0.00 0.00 0.00 77 1009.7
20260506081016 64 29 0.9 3.5 0.00 0.00 0.00 77 1009.8
20260506080511 64 220 0.9 3.5 0.00 0.00 0.00 77 1009.7
20260506073503 64 9 0.0 2.6 0.00 0.00 0.00 76 1009.9
20260506073014 64 300 0.0 2.6 0.00 0.00 0.00 76 1009.9
20260506072513 65 141 0.0 3.5 0.00 0.00 0.00 76 1009.9
20260506072012 65 299 0.9 3.5 0.00 0.00 0.00 76 1010.0
20260506071520 65 104 0.9 3.5 0.00 0.00 0.00 75 1010.0
20260506071008 65 301 0.9 3.5 0.00 0.00 0.00 75 1010.1
20260506070509 65 279 0.0 2.6 0.00 0.00 0.00 75 1010.1
20260506062514 65 276 0.9 4.3 0.00 0.00 0.00 74 1010.4
20260506062007 65 193 0.9 3.5 0.00 0.00 0.00 73 1010.3
20260506061516 65 247 0.9 3.5 0.00 0.00 0.00 73 1010.3
20260506061011 66 272 0.0 3.5 0.00 0.00 0.00 73 1010.3
20260506060508 66 221 0.9 3.5 0.00 0.00 0.00 72 1010.3
20260506051012 67 247 0.9 5.2 0.00 0.00 0.00 69 1010.8
20260506050515 67 213 0.9 7.8 0.00 0.00 0.00 69 1010.7
20260506045009 67 264 2.6 7.0 0.00 0.00 0.00 68 1010.8
20260506044526 67 257 1.7 5.2 0.00 0.00 0.00 68 1010.9
20260506044013 67 101 1.7 3.5 0.00 0.00 0.00 68 1010.8
20260506043510 67 275 0.9 3.5 0.00 0.00 0.00 67 1010.7
20260506043027 67 115 0.9 4.3 0.00 0.00 0.00 67 1010.8
20260506042510 67 136 0.9 5.2 0.00 0.00 0.00 66 1010.9
20260506042017 67 286 0.9 6.1 0.00 0.00 0.00 65 1010.8
20260506041524 67 180 0.9 6.1 0.00 0.00 0.00 65 1010.8
20260506041004 68 253 0.9 7.8 0.00 0.00 0.00 65 1010.6
20260506040508 68 96 1.7 7.8 0.00 0.00 0.00 65 1010.7
20260506040016 68 296 1.7 7.8 0.00 0.00 0.00 64 1010.6
20260506035508 68 294 1.7 6.1 0.00 0.00 0.00 64 1010.6
20260506035008 68 164 0.9 4.3 0.00 0.00 0.00 64 1010.6
20260506034522 68 41 0.9 5.2 0.00 0.00 0.00 64 1010.6
20260506034007 68 323 0.9 5.2 0.00 0.00 0.00 63 1010.5
20260506033509 68 116 0.9 5.2 0.00 0.00 0.00 63 1010.5
20260506033005 68 169 0.9 6.1 0.00 0.00 0.00 63 1010.6
20260506032503 68 180 1.7 7.8 0.00 0.00 0.00 62 1010.6
20260506032004 68 88 1.7 7.8 0.00 0.00 0.00 62 1010.5
20260506031513 68 90 1.7 6.1 0.00 0.00 0.00 62 1010.6
20260506031005 68 286 1.7 6.1 0.00 0.00 0.00 62 1010.6
20260506030508 68 139 0.9 6.1 0.00 0.00 0.00 62 1010.7
20260506030015 68 190 0.9 6.1 0.00 0.00 0.00 62 1010.7
20260506025509 68 267 0.9 6.1 0.00 0.00 0.00 61 1010.7
20260506025009 69 159 0.9 6.1 0.00 0.00 0.00 61 1010.7
20260506024518 69 51 0.9 7.8 0.00 0.00 0.00 61 1010.8
20260506024013 69 252 1.7 7.8 0.00 0.00 0.00 60 1010.7
20260506023513 69 110 0.9 11.3 0.00 0.00 0.00 60 1010.8
20260506023025 69 128 0.9 11.3 0.00 0.00 0.00 60 1010.8
20260506022511 69 189 0.9 8.7 0.00 0.00 0.00 60 1010.8
20260506022004 69 136 0.9 8.7 0.00 0.00 0.00 59 1010.8
20260506021509 69 184 1.7 5.2 0.00 0.00 0.00 59 1010.7
20260506021003 69 192 1.7 6.1 0.00 0.00 0.00 59 1010.8
20260506020513 70 192 1.7 7.8 0.00 0.00 0.00 59 1010.7
20260506020014 70 94 1.7 8.7 0.00 0.00 0.00 58 1010.7
20260506015507 70 184 2.6 8.7 0.00 0.00 0.00 58 1010.7
20260506015007 70 91 0.9 5.2 0.00 0.00 0.00 57 1010.7
20260506014519 71 135 0.9 6.1 0.00 0.00 0.00 56 1010.6
20260506014007 71 53 1.7 6.1 0.00 0.00 0.00 55 1010.5
20260506013509 71 178 0.9 6.1 0.00 0.00 0.00 54 1010.4
20260506013026 71 171 0.9 6.1 0.00 0.00 0.00 54 1010.4
20260506012509 72 268 0.9 4.3 0.00 0.00 0.00 53 1010.4
20260506012011 72 197 0.9 5.2 0.00 0.00 0.00 52 1010.3
20260506011526 72 96 0.9 5.2 0.00 0.00 0.00 50 1010.3
20260506011004 72 307 0.9 3.5 0.00 0.00 0.00 50 1010.2
20260506010503 73 321 0.9 5.2 0.00 0.00 0.00 49 1010.1
20260506010012 73 294 1.7 5.2 0.00 0.00 0.00 48 1010.0
20260506005504 73 246 0.9 2.6 0.00 0.00 0.00 46 1010.0
20260506005015 74 169 0.9 7.0 0.00 0.00 0.00 46 1009.9
20260506004523 74 254 0.9 7.0 0.00 0.00 0.00 45 1009.9
20260506004009 74 221 0.9 3.5 0.00 0.00 0.00 44 1009.8
20260506003510 75 221 0.9 3.5 0.00 0.00 0.00 43 1009.8
20260506003020 75 96 0.9 6.1 0.00 0.00 0.00 43 1009.7
20260506002510 75 284 1.7 6.1 0.00 0.00 0.00 43 1009.7
20260506002013 75 261 2.6 6.1 0.00 0.00 0.00 43 1009.5
20260506001521 75 252 0.9 7.0 0.00 0.00 0.00 43 1009.5
20260506001010 75 227 1.7 7.0 0.00 0.00 0.00 43 1009.5
20260506000507 75 263 2.6 7.0 0.00 0.00 0.00 42 1009.5
20260506000016 75 177 1.7 5.2 0.00 0.00 0.00 42 1009.5
20260505235508 76 202 0.9 6.1 0.00 0.00 0.00 42 1009.4
20260505235007 76 262 1.7 7.8 0.00 0.00 0.00 43 1009.4
20260505234519 76 232 1.7 7.8 0.00 0.00 0.00 43 1009.4
20260505234009 76 284 1.7 7.0 0.00 0.00 0.00 43 1009.3
20260505233513 76 201 0.9 4.3 0.00 0.00 0.00 44 1009.3
20260505233018 76 256 0.9 6.1 0.00 0.00 0.00 43 1009.3
20260505232509 76 207 1.7 7.0 0.00 0.00 0.00 43 1009.2
20260505232010 76 213 1.7 7.0 0.00 0.00 0.00 43 1009.1
20260505231523 76 236 0.9 5.2 0.00 0.00 0.00 42 1009.1
20260505231010 77 212 1.7 6.1 0.00 0.00 0.00 42 1009.1
20260505230513 77 259 1.7 6.1 0.00 0.00 0.00 42 1009.1
20260505230027 77 207 1.7 7.0 0.00 0.00 0.00 42 1009.1
20260505225513 77 188 1.7 7.8 0.00 0.00 0.00 41 1009.1
20260505225004 78 225 2.6 7.8 0.00 0.00 0.00 41 1009.0
20260505224512 78 240 1.7 7.8 0.00 0.00 0.00 40 1008.9
20260505224012 79 301 0.9 7.0 0.00 0.00 0.00 41 1008.9
20260505223507 79 264 1.7 9.6 0.00 0.00 0.00 38 1008.9
20260505223018 79 194 4.3 9.6 0.00 0.00 0.00 36 1008.8
20260505222507 79 269 1.7 9.6 0.00 0.00 0.00 37 1008.7
20260505222009 80 227 2.6 10.4 0.00 0.00 0.00 36 1008.9
20260505221518 80 17 2.6 13.9 0.00 0.00 0.00 35 1008.8
20260505221008 80 254 2.6 13.9 0.00 0.00 0.00 36 1008.7
20260505220508 80 249 1.7 7.0 0.00 0.00 0.00 36 1008.7
20260505220034 80 171 1.7 7.8 0.00 0.00 0.00 36 1008.7
20260505215512 80 277 4.3 7.8 0.00 0.00 0.00 35 1008.7
20260505215010 80 159 1.7 8.7 0.00 0.00 0.00 35 1008.7
20260505214547 81 116 3.5 8.7 0.00 0.00 0.00 35 1008.6
20260505214006 81 140 2.6 7.0 0.00 0.00 0.00 34 1008.6
20260505213507 81 153 1.7 11.3 0.00 0.00 0.00 34 1008.7
20260505213018 81 196 2.6 13.0 0.00 0.00 0.00 35 1008.7
20260505212507 82 180 1.7 13.0 0.00 0.00 0.00 33 1008.8
20260505212009 83 293 3.5 9.6 0.00 0.00 0.00 32 1008.7
20260505211518 82 298 1.7 7.0 0.00 0.00 0.00 34 1008.8
20260505211010 83 312 1.7 7.8 0.00 0.00 0.00 33 1008.7
20260505210508 82 248 2.6 9.6 0.00 0.00 0.00 31 1008.7
20260505210029 82 189 4.3 10.4 0.00 0.00 0.00 30 1008.6
20260505205515 82 257 3.5 10.4 0.00 0.00 0.00 31 1008.6
20260505205016 83 229 2.6 13.0 0.00 0.00 0.00 31 1008.7
20260505204531 83 269 2.6 13.0 0.00 0.00 0.00 30 1008.7
20260505204010 84 262 6.1 12.2 0.00 0.00 0.00 30 1008.6
20260505203514 84 121 1.7 7.8 0.00 0.00 0.00 31 1008.6
20260505203009 84 252 0.9 11.3 0.00 0.00 0.00 31 1008.6
20260505202506 84 144 2.6 12.2 0.00 0.00 0.00 29 1008.7